Location: Gönnheim
(49.4488°N, 8.2383°E)
Time: 00:50:37
(UTC+00:00)

ATLAS 3B R/B - Pass Details

Date: 19 May 2025
Orbit: 935 x 1258 km, 63.8° (Epoch: 23 June)

Event Time Altitude Azimuth Distance (km) Brightness Sun altitude
Exits shadow 23:17:19 20° 224° (SW) 2,435 4.2 -20.6°
Maximum altitude 23:22:53 84° 312° (NW) 1,232 3.0 -20.6°
Drops below altitude 10° 23:30:48 10° 42° (NE) 3,241 5.9 -20.5°
Sets 23:33:38 0° 43° (NE) 4,219 6.6 -20.5°
